Bloomington, IL

4:37 AM CDT on September 26, 2016 (GMT -0500)
Central Ill Regional

Weather History for KBMI - September, 2011

Change the Weather History Date:

Tuesday, September 6, 2011

  Actual Average Record
Temperature  
Mean Temperature 58 °F -  
Max Temperature 70 °F 85 °F 95 °F (2015)
Min Temperature 45 °F 59 °F 45 °F (2011)
Degree Days  
Heating Degree Days 8    
Growing Degree Days 8 (Base 50)    
Moisture  
Dew Point 46 °F    
Average Humidity 71    
Maximum Humidity 93    
Minimum Humidity 38    
Precipitation  
Precipitation 0.00 in - - ()
Sea Level Pressure  
Sea Level Pressure 30.14 in    
Wind  
Wind Speed 13 mph (NNE)    
Max Wind Speed 22 mph    
Max Gust Speed -    
Visibility 10 miles    
Events      
Averages and records for this station are not official NWS values.
T = Trace of Precipitation, MM = Missing Value Source: NWS Daily Summary

Daily Weather History Graph

Daily Weather History Graph

Search for Another Location

Airport or City:

Trip Planner

Search our weather history database for the weather conditions in past years. The results will help you decide how hot, cold, wet, or windy it might be!

Date:

Astronomy

Sep. 06, 2011 Rise Set
Actual Time 6:27 AM CDT 7:19 PM CDT
Civil Twilight 5:59 AM CDT 7:47 PM CDT
Nautical Twilight 5:26 AM CDT 8:20 PM CDT
Astronomical Twilight 4:52 AM CDT 8:54 PM CDT
Moon 3:56 PM CDT (9/6) 12:41 AM CDT (9/6)
Length of Visible Light 13h 47m
Length of Day
12h 52m
Waxing Gibbous, 71% of the Moon is Illuminated
Sep 6
Waxing Gibbous
Sep 12
Full
Sep 20
Last Quarter
Sep 27
New
Oct 3
First Quarter

Hourly Weather History & Observations

Time (CDT) Temp. Windchill Dew Point Humidity Pressure Visibility Wind Dir Wind Speed Gust Speed Precip Events Conditions
12:56 AM 50.9 °F - 45.9 °F 83% 30.12 in 10.0 mi North 13.8 mph - N/A   Clear
1:56 AM 52.0 °F - 45.0 °F 77% 30.11 in 10.0 mi NNE 12.7 mph - N/A   Clear
2:56 AM 50.0 °F - 45.9 °F 86% 30.11 in 10.0 mi North 11.5 mph - N/A   Clear
3:56 AM 47.8 °F - 45.0 °F 90% 30.12 in 10.0 mi NNE 10.4 mph - N/A   Clear
4:56 AM 45.9 °F 40.8 °F 43.9 °F 93% 30.14 in 10.0 mi NNE 10.4 mph - N/A   Clear
5:56 AM 46.9 °F - 45.0 °F 93% 30.15 in 10.0 mi NNE 9.2 mph - N/A   Scattered Clouds
6:56 AM 46.9 °F - 45.0 °F 93% 30.16 in 10.0 mi NNE 9.2 mph - N/A   Clear
7:56 AM 50.9 °F - 45.9 °F 83% 30.18 in 10.0 mi NNE 11.5 mph - N/A   Clear
8:56 AM 54.9 °F - 45.9 °F 72% 30.18 in 10.0 mi NE 15.0 mph - N/A   Clear
9:56 AM 59.0 °F - 46.9 °F 64% 30.19 in 10.0 mi NE 16.1 mph - N/A   Scattered Clouds
10:56 AM 61.0 °F - 46.9 °F 60% 30.19 in 10.0 mi NE 17.3 mph - N/A   Scattered Clouds
11:56 AM 64.9 °F - 45.9 °F 50% 30.17 in 10.0 mi NE 20.7 mph - N/A   Scattered Clouds
1:56 PM 70.0 °F - 45.9 °F 42% 30.12 in 10.0 mi NNE 16.1 mph - N/A   Partly Cloudy
2:56 PM 70.9 °F - 45.9 °F 41% 30.11 in 10.0 mi NNE 15.0 mph - N/A   Clear
3:56 PM 70.9 °F - 43.9 °F 38% 30.09 in 10.0 mi NNE 19.6 mph - N/A   Clear
4:56 PM 70.0 °F - 43.9 °F 39% 30.09 in 10.0 mi NE 21.9 mph - N/A   Clear
5:56 PM 68.9 °F - 45.9 °F 44% 30.10 in 10.0 mi NE 16.1 mph - N/A   Clear
7:56 PM 56.8 °F - 47.8 °F 72% 30.15 in 10.0 mi NE 6.9 mph - N/A   Clear
8:56 PM 52.9 °F - 47.8 °F 83% 30.16 in 10.0 mi NNE 9.2 mph - N/A   Clear
9:56 PM 52.0 °F - 46.9 °F 83% 30.16 in 10.0 mi NNE 8.1 mph - N/A   Clear
10:56 PM 50.9 °F - 46.9 °F 86% 30.16 in 10.0 mi NNE 10.4 mph - N/A   Clear
11:56 PM 52.9 °F - 46.9 °F 80% 30.15 in 10.0 mi NNE 10.4 mph - N/A   Clear